Find Starlink 31438

NORAD ID: 59234 Int'l Des: 2024-049 Owner: SPXS Country: US Constellation: starlink operational
LEOCIRCULAR

当前视图

正在加载3D地球...

About Starlink 31438

Starlink 31438 (NORAD 59234) is a starlink constellation satellite (v2 mini) launched Mar 16, 2024 by SPXS of US. It operates in LEO, CIRCULAR orbit with a mass of 730.00 kg.

关于 Starlink 31438

正在加载描述...

即将过境

Passes for default location (London). Set your location on the main map for personalized predictions.

高度历史

Loading altitude history...

两行轨道根数

1 59234U 24049D 26177.88716498 -.00001890 00000-0 -59192-4 0 9996
2 59234 43.0016 235.8414 0001634 266.8083 93.2582 15.27560401129229
Epoch: Jun 26, 2026 • Age: 13 hours

当前状态

高度 485.0 km
速度 7.62 km/s
星下点 -12.35°S, 10.02°W
发射日期 Mar 16, 2024
运行时间 2.2 years
类型 internet

技术详情

分类 Payload
质量 730.00 kg
干质量 700.00 kg
总质量 730.00 kg
长度 0.30 m
直径 4.10 m
跨度 29.00 m
形状 Box + pan
制造商 SPXS
平台类型 Starlink V2M
阶段状态 In Orbit
所有者/国家 SPXS/US

Most Searched